EW9807 Weather Reports


time (UTC)temp
C
wind
direction
speed
KPH
gust
KPH
rain 1hr
cm
rain 24hr
cm
rain mn
cm
humidity
%
barometer
mb
20260504035555 11 169 0.0 0.0 0.00 0.00 0.00 79 1018.7
20260504034048 11 169 0.0 0.0 0.00 0.00 0.00 77 1018.8
20260504033600 11 169 0.0 0.0 0.00 0.00 0.00 77 1018.8
20260504032557 11 169 0.0 0.0 0.00 0.00 0.00 75 1018.9
20260504032103 11 169 0.0 0.0 0.00 0.00 0.00 74 1018.8
20260504031554 12 169 0.0 0.0 0.00 0.00 0.00 74 1018.9
20260504031101 12 169 0.0 0.0 0.00 0.00 0.00 74 1018.7
20260504030547 12 169 0.0 0.0 0.00 0.00 0.00 74 1018.7
20260504025058 12 169 0.0 0.0 0.00 0.00 0.00 71 1018.7
20260504024549 12 169 0.0 0.0 0.00 0.00 0.00 72 1018.7
20260504024052 12 169 0.0 0.0 0.00 0.00 0.00 72 1018.7
20260504023601 12 169 0.0 0.0 0.00 0.00 0.00 71 1018.6
20260504023050 12 169 0.0 0.0 0.00 0.00 0.00 71 1018.5
20260504022558 12 169 0.0 0.0 0.00 0.00 0.00 73 1018.4
20260504021104 13 169 0.0 0.0 0.00 0.00 0.00 72 1018.2
20260504020553 13 169 0.0 0.0 0.00 0.00 0.00 72 1018.1
20260504020101 13 169 0.0 0.0 0.00 0.00 0.00 70 1018.0
20260504020001 13 169 0.0 0.0 0.00 0.00 0.00 70 1017.8
20260504015607 13 169 0.0 0.0 0.00 0.00 0.00 70 1018.0
20260504015054 13 169 0.0 0.0 0.00 0.00 0.00 68 1017.8
20260504015009 13 169 0.0 0.0 0.00 0.00 0.00 68 1017.6
20260504014053 13 169 0.0 0.0 0.00 0.00 0.00 65 1017.8
20260504013601 13 169 0.0 0.0 0.00 0.00 0.00 65 1017.7
20260504013051 14 169 0.0 0.0 0.00 0.00 0.00 62 1017.6
20260504012551 14 169 0.0 0.0 0.00 0.00 0.00 62 1017.5
20260504012102 15 169 0.0 0.0 0.00 0.00 0.00 63 1017.4
20260504011058 15 169 0.0 0.0 0.00 0.00 0.00 61 1017.3
20260504010546 15 169 0.0 0.0 0.00 0.00 0.00 60 1017.3
20260504010057 15 169 0.0 0.0 0.00 0.00 0.00 59 1017.2
20260504005601 15 169 0.0 0.0 0.00 0.00 0.00 60 1017.3
20260504004558 16 169 0.0 0.0 0.00 0.00 0.00 55 1017.2
20260504004045 16 169 0.0 0.0 0.00 0.00 0.00 56 1017.1
20260504003556 16 169 0.0 1.6 0.00 0.00 0.00 53 1017.1
20260504003102 17 169 0.0 1.6 0.00 0.00 0.00 52 1017.0
20260504002604 17 169 0.0 0.0 0.00 0.00 0.00 53 1017.1
20260504002048 17 169 0.0 0.0 0.00 0.00 0.00 50 1016.9
20260504001558 17 169 0.0 0.0 0.00 0.00 0.00 49 1016.9
20260504001104 17 169 0.0 0.0 0.00 0.00 0.00 48 1016.9
20260504000103 18 169 0.0 0.0 0.00 0.00 0.00 47 1016.9
20260503235547 18 169 0.0 0.0 0.00 0.00 0.00 46 1016.8
20260503235055 18 169 0.0 1.6 0.00 0.00 0.00 48 1016.8
20260503234601 18 169 0.0 0.0 0.00 0.00 0.00 46 1016.8
20260503234050 18 169 0.0 0.0 0.00 0.00 0.00 44 1016.9
20260503233558 18 169 0.0 1.6 0.00 0.00 0.00 43 1016.9
20260503232557 18 169 0.0 1.6 0.00 0.00 0.00 43 1016.8
20260503231556 19 178 0.0 4.8 0.00 0.00 0.00 41 1016.8
20260503231046 19 178 1.6 4.8 0.00 0.00 0.00 41 1016.8
20260503230552 19 209 0.0 3.2 0.00 0.00 0.00 43 1016.9
20260503230100 20 209 1.6 12.9 0.00 0.00 0.00 40 1016.9
20260503225603 20 174 1.6 12.9 0.00 0.00 0.00 40 1016.9
20260503225052 20 213 1.6 9.7 0.00 0.00 0.00 40 1016.9
20260503224602 20 179 4.8 9.7 0.00 0.00 0.00 38 1016.9
20260503224053 20 179 0.0 1.6 0.00 0.00 0.00 39 1016.9
20260503223601 20 179 0.0 4.8 0.00 0.00 0.00 40 1016.9
20260503223049 20 179 3.2 4.8 0.00 0.00 0.00 39 1016.9
20260503222552 20 169 1.6 11.3 0.00 0.00 0.00 39 1016.9
20260503222102 20 169 6.4 11.3 0.00 0.00 0.00 38 1017.0
20260503221551 20 331 1.6 8.0 0.00 0.00 0.00 40 1016.9
20260503221103 20 181 3.2 6.4 0.00 0.00 0.00 38 1017.0
20260503220553 20 166 1.6 8.0 0.00 0.00 0.00 37 1017.1
20260503215554 21 198 4.8 12.9 0.00 0.00 0.00 37 1017.1
20260503215100 21 208 3.2 11.3 0.00 0.00 0.00 38 1017.1
20260503214607 21 236 3.2 11.3 0.00 0.00 0.00 40 1017.1
20260503214054 20 184 1.6 8.0 0.00 0.00 0.00 40 1017.2
20260503213602 20 68 1.6 3.2 0.00 0.00 0.00 39 1017.2
20260503213109 21 68 1.6 8.0 0.00 0.00 0.00 36 1017.2
20260503212556 21 154 4.8 12.9 0.00 0.00 0.00 37 1017.3
20260503212102 21 204 3.2 12.9 0.00 0.00 0.00 38 1017.3
20260503211059 21 183 1.6 14.5 0.00 0.00 0.00 36 1017.3
20260503210504 20 155 4.8 14.5 0.00 0.00 0.00 39 1017.1
20260503210130 20 149 1.6 4.8 0.00 0.00 0.00 40 1017.3
20260503205104 20 321 1.6 4.8 0.00 0.00 0.00 40 1017.4
20260503204552 20 320 0.0 4.8 0.00 0.00 0.00 40 1017.4
20260503204056 20 321 1.6 4.8 0.00 0.00 0.00 38 1017.5
20260503203057 20 176 0.0 6.4 0.00 0.00 0.00 40 1017.6
20260503202604 20 171 3.2 9.7 0.00 0.00 0.00 41 1017.7
20260503202051 21 172 3.2 14.5 0.00 0.00 0.00 40 1017.7
20260503201553 21 214 8.0 14.5 0.00 0.00 0.00 39 1017.9
20260503201100 21 167 3.2 14.5 0.00 0.00 0.00 39 1017.9
20260503200550 21 209 1.6 14.5 0.00 0.00 0.00 42 1018.0
20260503200059 21 188 4.8 9.7 0.00 0.00 0.00 41 1018.0
20260503195559 21 201 4.8 14.5 0.00 0.00 0.00 43 1018.1
20260503195047 20 193 4.8 14.5 0.00 0.00 0.00 43 1018.1
20260503194557 20 301 1.6 12.9 0.00 0.00 0.00 39 1018.1
20260503194045 20 179 6.4 12.9 0.00 0.00 0.00 41 1018.4
20260503193554 20 243 1.6 4.8 0.00 0.00 0.00 40 1018.5
20260503193102 20 337 3.2 4.8 0.00 0.00 0.00 39 1018.5
20260503192604 20 154 3.2 4.8 0.00 0.00 0.00 38 1018.6
20260503192049 20 185 1.6 6.4 0.00 0.00 0.00 39 1018.7
20260503191557 20 271 1.6 6.4 0.00 0.00 0.00 41 1018.8
20260503190558 20 186 3.2 12.9 0.00 0.00 0.00 38 1018.9
20260503185557 20 3 3.2 9.7 0.00 0.00 0.00 40 1019.1
20260503185046 20 288 1.6 9.7 0.00 0.00 0.00 38 1019.2
20260503184550 20 184 4.8 9.7 0.00 0.00 0.00 36 1019.3
20260503184101 20 303 1.6 11.3 0.00 0.00 0.00 38 1019.5
20260503183551 20 177 4.8 9.7 0.00 0.00 0.00 41 1019.5
20260503182549 20 169 3.2 16.1 0.00 0.00 0.00 39 1019.6
20260503181553 20 228 6.4 11.3 0.00 0.00 0.00 41 1019.7
20260503181056 20 203 3.2 11.3 0.00 0.00 0.00 39 1019.6
20260503180542 21 131 6.4 11.3 0.00 0.00 0.00 38 1019.7
20260503180055 20 185 4.8 9.7 0.00 0.00 0.00 40 1019.7
20260503175604 20 210 3.2 9.7 0.00 0.00 0.00 44 1019.8
20260503175052 20 27 1.6 8.0 0.00 0.00 0.00 41 1019.8
20260503173603 19 271 3.2 6.4 0.00 0.00 0.00 42 1019.9
20260503173110 19 174 1.6 4.8 0.00 0.00 0.00 45 1020.0
20260503172553 19 240 0.0 3.2 0.00 0.00 0.00 43 1020.1
20260503172100 20 227 1.6 9.7 0.00 0.00 0.00 41 1020.2
20260503171057 19 160 6.4 11.3 0.00 0.00 0.00 41 1020.2
20260503170547 20 257 3.2 9.7 0.00 0.00 0.00 45 1020.2
20260503170130 19 174 1.6 9.7 0.00 0.00 0.00 45 1020.2
20260503150556 16 184 3.2 9.7 0.00 0.00 0.00 54 1020.9
20260503150105 16 184 4.8 12.9 0.00 0.00 0.00 55 1021.0
20260503131053 11 251 0.0 0.0 0.00 0.00 0.00 76 1020.4
20260503110548 6 303 0.0 0.0 0.00 0.05 0.00 90 1019.7
20260503081550 7 303 0.0 0.0 0.00 0.05 0.00 85 1018.6
20260503081056 7 303 0.0 0.0 0.00 0.05 0.00 85 1018.5
20260503080549 7 303 0.0 0.0 0.00 0.05 0.00 85 1018.4
20260503072553 8 303 0.0 0.0 0.00 0.08 0.00 79 1018.1
20260503072102 8 303 0.0 0.0 0.00 0.08 0.00 78 1018.0
20260503071548 8 303 0.0 0.0 0.00 0.08 0.00 77 1018.0
20260503071056 8 303 0.0 0.0 0.00 0.08 0.00 77 1018.0
20260503070549 8 303 0.0 0.0 0.00 0.08 0.00 76 1018.0
20260503055056 8 303 0.0 0.0 0.00 0.10 0.00 79 1017.7
20260503054546 8 303 0.0 0.0 0.00 0.10 0.00 80 1017.8
20260503053548 8 303 0.0 0.0 0.00 0.10 0.00 80 1017.7
20260503053057 8 303 0.0 0.0 0.00 0.10 0.00 80 1017.7
20260503052559 8 303 0.0 0.0 0.00 0.10 0.00 80 1017.7
20260503052046 8 303 0.0 0.0 0.00 0.10 0.00 80 1017.7
20260503051558 8 303 0.0 0.0 0.00 0.10 0.00 79 1017.6
20260503051046 8 303 0.0 0.0 0.00 0.10 0.00 79 1017.6
20260503050555 9 303 0.0 0.0 0.00 0.10 0.00 79 1017.6
20260503050509 8 303 0.0 0.0 0.00 0.10 0.00 79 1017.3
20260503045548 9 303 0.0 0.0 0.00 0.10 0.00 78 1017.5
20260503045054 9 303 0.0 0.0 0.00 0.10 0.00 80 1017.4
20260503044600 9 303 0.0 0.0 0.00 0.10 0.00 79 1017.4
20260503044049 9 303 0.0 0.0 0.00 0.10 0.00 78 1017.4
20260503043557 9 303 0.0 0.0 0.00 0.10 0.00 78 1017.3
20260503043102 9 303 0.0 0.0 0.00 0.10 0.00 77 1017.3
20260503042550 9 303 0.0 0.0 0.00 0.10 0.00 76 1017.3
20260503042100 9 303 0.0 0.0 0.00 0.10 0.00 78 1017.3
20260503041548 9 303 0.0 0.0 0.00 0.10 0.00 76 1017.3
20260503040550 10 303 0.0 0.0 0.00 0.10 0.00 75 1017.2
20260503040509 9 303 0.0 0.0 0.00 0.10 0.00 75 1016.9
20260503040132 10 303 0.0 0.0 0.00 0.10 0.00 74 1017.1